Weather Roundup
Issued by NWS Corpus Christi, TX

Home | Current Version | Previous Version | Text Only | Print | Product List | Glossary On
Versions: 1 2 3 4 5 6 7 8 9 10 11 12 13 14 15 16 17 18 19 20 21 22 23 24 25 26 27 28 29 30 31 32 33 34 35 36 37 38 39 40 41 42 43 44 45 46 47 48 49 50
000
ASUS44 KCRP 310910
HRRCRP

SOUTH TEXAS REGIONAL WEATHER ROUNDUP
NATIONAL WEATHER SERVICE CORPUS CHRISTI TX
300 AM CST SAT JAN 31 2015


TXZ229>244-311000-
...CORPUS CHRISTI AREA OBSERVATIONS...

CITY           SKY/WX    TMP DP  RH WIND       PRES   REMARKS
CORPUS CHRISTI CLOUDY    60  56  86 NE9       30.14F
NAS CORPUS CHR CLOUDY    59  58  96 NE15      30.13F
ROCKPORT       CLOUDY    60  55  83 NE13      30.15F
KINGSVILLE NAS CLOUDY    60  58  92 NE9       30.14F
ALICE          CLOUDY    58  54  86 E10       30.14F
FALFURRIAS     CLOUDY    59  55  88 NE6       30.12F
$$

...VICTORIA AREA OBSERVATIONS...

CITY           SKY/WX    TMP DP  RH WIND       PRES   REMARKS
VICTORIA       CLOUDY    53  49  86 NE6       30.19F
BEEVILLE       CLOUDY    54  53  97 NE7       30.16F
PLEASANTON     CLOUDY    52  46  79 NE8       30.18F
SAN ANTONIO    CLOUDY    52  42  69 E8        30.20F
$$

...LAREDO AREA OBSERVATIONS...

CITY           SKY/WX    TMP DP  RH WIND       PRES   REMARKS
LAREDO         LGT RAIN  58  57  96 E12       30.10F
DEL RIO        CLOUDY    50  46  86 E7        30.12F FOG
MCALLEN        CLOUDY    65  62  90 E12       30.10F
HEBBRONVILLE   RAIN      56  55  98 E12       30.11F
$$

...OTHER TEXAS OBSERVATIONS...

CITY           SKY/WX    TMP DP  RH WIND       PRES   REMARKS
BROWNSVILLE    CLOUDY    62  60  93 SE5       30.11F
HOUSTON        PTCLDY    43  37  79 E8        30.24F
COL. STATION   FAIR      46  34  62 E7        30.24F
AUSTIN         CLOUDY    49  40  71 SE5       30.21F
WACO           CLOUDY    47  35  63 SE5       30.23F
FORT WORTH     CLOUDY    49  30  48 SE8       30.23F
WICHITA FALLS  CLOUDY    46  33  60 NE3       30.21F
LUBBOCK        LGT RAIN  36  34  92 E8        30.10F FOG
EL PASO        LGT RAIN  44  40  85 N5        29.94F
$$

...MARINE OBSERVATIONS...

STATION/POSITION TIME  SKY/WX   TEMP    WIND        PRES    VSBY  WAVE   SWELL
                                AIR SEA DIR/SP/G                  HT/PER HT/PER
                 (UTC)          (F)     (DEG/KT/KT) (MB)    (MI)  (FT/S) (FT/S)
PORT ARANSAS     0900            59 60   40/ 14/ 14 1020.7F
BUOY 90 E PORT A 0900            65 68   90/ 16/ 19 1021.9F         4/ 6
BUOY 45 SE BAFFI 0900            69 69  120/ 19/ 23 1019.4F         6/ 7   2/11
BUOY 200 E PT IS 0900            70 72   90/ 14/ 16 1021.0F         4/ 7   2/ 7
BUOY 15 E GALVES 0900            56 57   90/ 16/ 19 1023.1F         4/ 5
$$


USA.gov is the U.S. government's official web portal to all federal, state and local government web resources and services.